Weather in Baranykivka

Ukraine / Luhansk Region     49°13′37″N   38°18′17″E
temp.,
°C
wind,
m/s
gust,
m/s
humid.,
%
clouds,
%
prec.,
mm/h
press.,
hPa
HPBL,
m
18 october, mon
mon1800:00+11nnw3666100 0.0 1016253
03:00+10nnw47725 0.0 1016263
06:00+6nnw368646 0.0 1017127
09:00+8nnw456766 0.0 1018330
12:00+12nw455148 0.0 10171067
15:00+13wnw564162 0.0 10161422
18:00+9nw3649100 0.0 1017146
21:00+8wnw2552100 0.0 1017124
19 october, tue
tue1900:00+7wnw3556100 0.0 1017135
03:00+6nnw4677100 0.1 1017481
06:00+6w3486100 1.1 1017946
09:00+6wnw4588100 2.8 10171043
12:00+5nnw6789100 1.3 1018954
15:00+10nnw694159 1.6 10182061
18:00+7nw511545 0.0 1020287
21:00+5nw5106529 0.1 1022427
20 october, wed
wed2000:00+4wnw5107670 0.0 1022385
03:00+2nw512765 0.0 1024393
06:00+1wnw410815 0.0 1025302
09:00+3nw69675 0.0 1026627
12:00+6nw574958 0.0 10271215
15:00+8nw453638 0.0 10271334
18:00+5wnw124472 0.0 102710
21:00+4ssw224512 0.0 102713
21 october, thu
thu2100:00+4s364697 0.0 102695
03:00+4ssw41253100 0.0 1025255
06:00+5ssw51351100 0.0 1023333
09:00+7sw7155486 0.0 1023497
12:00+13sw912427 0.0 1021830
15:00+15sw911455 0.0 10191082
18:00+12sw6135447 0.0 1018397
21:00+11ssw71548100 0.0 1018468
22 october, fri
fri2200:00+9sw71668100 0.0 1017478
03:00+9sw71676100 0.0 1016514
06:00+8sw71588100 0.0 1015480
09:00+10sw6128394 0.0 1016554
12:00+16sw795951 0.0 1015837
15:00+18wsw68505 0.0 10141077
18:00+14sw35665 0.0 101560
21:00+12sw33735 0.0 101541